GW5586 Weather Reports


Display with metric or nautical units.
time (UTC)temp
F
wind
direction
speed
MPH
gust
MPH
rain 1hr
in
rain 24hr
in
rain mn
in
humidity
%
barometer
mb
20260506213153 50 232 6.0 10.0 0.00 0.00 0.00 60 1022.8
20260506212530 51 329 4.0 9.0 0.00 0.00 0.00 62 1022.7
20260506212026 51 325 2.0 9.0 0.00 0.00 0.00 62 1022.6
20260506211633 51 350 4.0 9.0 0.00 0.00 0.00 60 1022.7
20260506211040 52 328 4.0 9.0 0.00 0.00 0.00 59 1022.6
20260506210530 52 352 2.0 5.0 0.00 0.00 0.00 59 1022.6
20260506210117 52 334 2.0 8.0 0.00 0.00 0.00 60 1022.5
20260506205522 51 341 1.0 5.0 0.00 0.00 0.00 61 1022.4
20260506205022 51 279 2.0 9.0 0.00 0.00 0.00 60 1022.5
20260506204643 51 317 4.0 9.0 0.00 0.00 0.00 60 1022.4
20260506204106 51 319 5.0 9.0 0.00 0.00 0.00 61 1022.4
20260506203540 52 311 2.0 8.0 0.00 0.00 0.00 61 1022.4
20260506203131 52 302 2.0 9.0 0.00 0.00 0.00 62 1022.4
20260506202546 51 14 5.0 9.0 0.00 0.00 0.00 62 1022.3
20260506202033 51 15 1.0 5.0 0.00 0.00 0.00 63 1022.2
20260506201616 51 314 3.0 6.0 0.00 0.00 0.00 62 1022.3
20260506201015 50 323 3.0 6.0 0.00 0.00 0.00 64 1022.3
20260506200544 51 334 3.0 8.0 0.00 0.00 0.00 63 1022.3
20260506200136 51 257 2.0 6.0 0.00 0.00 0.00 64 1022.2
20260506195532 50 329 3.0 6.0 0.00 0.00 0.00 66 1022.1
20260506195030 50 284 3.0 8.0 0.00 0.00 0.00 65 1022.2
20260506194625 50 295 3.0 9.0 0.00 0.00 0.00 66 1022.3
20260506194056 50 340 5.0 9.0 0.00 0.00 0.00 64 1022.2
20260506193522 50 332 3.0 11.0 0.00 0.00 0.00 67 1022.2
20260506193123 50 360 5.0 11.0 0.00 0.00 0.00 67 1022.1
20260506192519 50 348 4.0 10.0 0.00 0.00 0.00 66 1022.1
20260506192029 50 318 4.0 12.0 0.00 0.00 0.00 68 1022.1
20260506191705 49 352 5.0 12.0 0.00 0.00 0.00 68 1022.0
20260506191033 49 346 6.0 11.0 0.00 0.00 0.00 67 1022.0
20260506190530 49 300 6.0 11.0 0.00 0.00 0.00 67 1022.1
20260506190137 49 332 4.0 11.0 0.00 0.00 0.00 68 1022.0
20260506185514 49 334 4.0 10.0 0.00 0.00 0.00 66 1021.9
20260506185044 49 341 4.0 10.0 0.00 0.00 0.00 68 1021.9
20260506184712 49 302 5.0 14.0 0.00 0.00 0.00 69 1021.9
20260506184016 49 321 6.0 9.0 0.00 0.00 0.00 68 1021.8
20260506183532 49 334 3.0 9.0 0.00 0.00 0.00 68 1021.8
20260506183154 49 310 2.0 9.0 0.00 0.00 0.00 69 1021.8
20260506182521 49 324 4.0 11.0 0.00 0.00 0.00 69 1021.9
20260506182026 49 345 4.0 11.0 0.00 0.00 0.00 69 1021.9
20260506181627 49 344 6.0 9.0 0.00 0.00 0.00 68 1021.8
20260506181022 49 346 3.0 12.0 0.00 0.00 0.00 70 1021.8
20260506180537 49 298 6.0 12.0 0.00 0.00 0.00 68 1021.8
20260506180051 49 298 3.0 8.0 0.00 0.00 0.00 69 1021.8
20260506175525 49 315 4.0 10.0 0.00 0.00 0.00 69 1021.7
20260506175036 48 298 2.0 10.0 0.00 0.00 0.00 71 1021.9
20260506174630 48 317 3.0 12.0 0.00 0.00 0.00 71 1021.8
20260506174025 47 330 6.0 12.0 0.00 0.00 0.00 71 1021.8
20260506173521 47 333 5.0 11.0 0.00 0.00 0.00 71 1021.7
20260506173200 47 343 4.0 11.0 0.00 0.00 0.00 72 1021.8
20260506172526 47 306 5.0 11.0 0.00 0.00 0.00 72 1021.9
20260506172041 47 288 4.0 11.0 0.00 0.00 0.00 73 1021.8
20260506171653 47 308 5.0 12.0 0.00 0.00 0.00 72 1021.8
20260506171051 46 306 5.0 12.0 0.00 0.00 0.00 72 1021.8
20260506170540 46 322 5.0 11.0 0.00 0.00 0.00 73 1021.9
20260506170059 46 301 5.0 11.0 0.00 0.00 0.00 74 1021.9
20260506165534 46 326 5.0 10.0 0.00 0.00 0.00 74 1021.9
20260506165112 46 331 2.0 11.0 0.00 0.00 0.00 74 1021.9
20260506164703 46 302 4.0 11.0 0.00 0.00 0.00 73 1021.8
20260506164050 46 333 3.0 9.0 0.00 0.00 0.00 73 1021.9
20260506163609 46 321 4.0 10.0 0.00 0.00 0.00 73 1021.8
20260506163149 46 344 4.0 10.0 0.00 0.00 0.00 74 1021.9
20260506162548 46 300 5.0 9.0 0.00 0.00 0.00 74 1021.8
20260506162050 46 296 3.0 8.0 0.00 0.00 0.00 74 1021.8
20260506161642 46 254 2.0 9.0 0.00 0.00 0.00 74 1021.7
20260506161016 46 311 4.0 9.0 0.00 0.00 0.00 74 1021.7
20260506160555 46 328 4.0 10.0 0.00 0.00 0.00 75 1021.6
20260506160143 46 344 5.0 10.0 0.00 0.00 0.00 74 1021.5
20260506155609 45 292 4.0 9.0 0.00 0.00 0.00 75 1021.5
20260506155028 45 316 5.0 10.0 0.00 0.00 0.00 74 1021.4
20260506154714 45 227 5.0 10.0 0.00 0.00 0.00 76 1021.3
20260506154030 45 315 4.0 11.0 0.00 0.00 0.00 76 1021.4
20260506153516 45 327 6.0 11.0 0.00 0.00 0.00 76 1021.3
20260506153126 45 338 4.0 9.0 0.00 0.00 0.00 76 1021.3
20260506152610 45 327 5.0 9.0 0.00 0.00 0.00 76 1021.3
20260506152021 45 319 4.0 9.0 0.00 0.00 0.00 77 1021.2
20260506151645 45 309 3.0 8.0 0.00 0.00 0.00 77 1021.3
20260506151029 45 317 3.0 8.0 0.00 0.00 0.00 77 1021.2
20260506150542 45 288 2.0 8.0 0.00 0.00 0.00 78 1021.2
20260506150150 45 325 3.0 7.0 0.00 0.00 0.00 77 1021.2
20260506145612 45 279 3.0 7.0 0.00 0.00 0.00 77 1021.1
20260506145055 45 310 3.0 9.0 0.00 0.00 0.00 77 1021.0
20260506144622 45 319 5.0 9.0 0.00 0.00 0.00 76 1020.9
20260506144114 45 293 2.0 7.0 0.00 0.00 0.00 77 1021.0
20260506143530 45 315 2.0 9.0 0.00 0.00 0.00 77 1021.0
20260506143111 45 302 2.0 9.0 0.00 0.00 0.00 77 1021.0
20260506142550 45 311 2.0 5.0 0.00 0.00 0.00 77 1020.9
20260506142042 45 270 2.0 9.0 0.00 0.00 0.00 78 1020.9
20260506141625 45 273 4.0 9.0 0.00 0.00 0.00 78 1020.8
20260506141042 45 338 2.0 7.0 0.00 0.00 0.00 78 1020.8
20260506140530 45 275 2.0 9.0 0.00 0.00 0.00 78 1020.8
20260506140120 45 336 3.0 9.0 0.00 0.00 0.00 78 1020.8
20260506135530 45 295 3.0 9.0 0.00 0.00 0.00 78 1020.7
20260506135019 45 309 3.0 9.0 0.00 0.00 0.00 78 1020.6
20260506134616 45 281 3.0 8.0 0.00 0.00 0.00 78 1020.5
20260506134029 45 264 2.0 9.0 0.00 0.00 0.00 78 1020.5
20260506133534 45 326 4.0 9.0 0.00 0.00 0.00 78 1020.5
20260506133149 45 277 3.0 9.0 0.00 0.00 0.00 78 1020.4
20260506132545 45 262 4.0 9.0 0.00 0.00 0.00 78 1020.3
20260506132032 45 270 3.0 8.0 0.00 0.00 0.00 78 1020.3
20260506131631 45 315 3.0 10.0 0.00 0.00 0.00 78 1020.2
20260506131030 45 240 3.0 10.0 0.00 0.00 0.00 78 1020.1
20260506130518 45 300 4.0 9.0 0.00 0.00 0.00 78 1020.2
20260506130109 45 332 6.0 10.0 0.00 0.00 0.00 78 1020.2
20260506125530 45 319 4.0 10.0 0.00 0.00 0.00 78 1020.2
20260506125029 45 259 2.0 10.0 0.00 0.00 0.00 79 1020.2
20260506124630 45 269 4.0 9.0 0.00 0.00 0.00 79 1020.2
20260506124044 45 291 3.0 9.0 0.00 0.00 0.00 79 1020.1
20260506123533 45 277 4.0 10.0 0.00 0.00 0.00 79 1020.0
20260506123052 45 283 4.0 10.0 0.00 0.00 0.00 79 1019.9
20260506122524 45 265 4.0 9.0 0.00 0.00 0.00 79 1019.9
20260506122025 45 271 5.0 9.0 0.00 0.00 0.00 80 1019.9
20260506121631 45 281 4.0 9.0 0.00 0.00 0.00 81 1019.9
20260506121025 45 284 3.0 8.0 0.00 0.00 0.00 81 1019.8
20260506120538 45 290 4.0 11.0 0.00 0.00 0.00 82 1019.8
20260506120206 45 313 4.0 11.0 0.00 0.00 0.00 82 1019.7
20260506115527 45 287 3.0 10.0 0.00 0.00 0.00 82 1019.6
20260506115026 45 302 5.0 9.0 0.00 0.00 0.00 82 1019.7
20260506114714 45 293 3.0 11.0 0.00 0.00 0.00 82 1019.6
20260506114026 45 315 4.0 11.0 0.00 0.00 0.00 82 1019.6
20260506113522 45 282 5.0 11.0 0.00 0.00 0.00 82 1019.6
20260506113046 45 297 5.0 11.0 0.00 0.00 0.00 82 1019.5
20260506112543 45 326 4.0 11.0 0.00 0.00 0.00 81 1019.5
20260506112029 45 335 5.0 12.0 0.00 0.00 0.00 82 1019.4
20260506111621 45 304 5.0 12.0 0.00 0.00 0.00 82 1019.5
20260506111026 45 320 5.0 11.0 0.00 0.00 0.00 82 1019.4
20260506110557 45 253 4.0 10.0 0.00 0.00 0.00 83 1019.4
20260506110130 45 352 4.0 9.0 0.00 0.00 0.00 83 1019.4
20260506105527 45 294 3.0 11.0 0.00 0.00 0.00 83 1019.3
20260506105023 45 341 3.0 8.0 0.00 0.00 0.00 84 1019.3
20260506104644 45 295 3.0 8.0 0.00 0.00 0.00 84 1019.3
20260506104044 45 319 3.0 8.0 0.00 0.00 0.00 84 1019.3
20260506103539 45 273 3.0 9.0 0.00 0.00 0.00 84 1019.3
20260506103125 45 296 3.0 9.0 0.00 0.00 0.00 83 1019.3
20260506102535 45 262 3.0 10.0 0.00 0.00 0.00 84 1019.3
20260506102039 45 294 4.0 9.0 0.00 0.00 0.00 84 1019.2
20260506101650 45 278 3.0 10.0 0.00 0.00 0.00 83 1019.2
20260506101023 45 309 3.0 10.0 0.00 0.00 0.00 83 1019.2
20260506100543 45 263 5.0 12.0 0.00 0.00 0.00 82 1019.2
20260506100154 45 247 5.0 12.0 0.00 0.00 0.00 82 1019.2
20260506095528 45 307 5.0 9.0 0.00 0.00 0.00 82 1019.1
20260506095038 45 248 4.0 10.0 0.00 0.00 0.00 82 1019.2
20260506094700 45 325 7.0 10.0 0.00 0.00 0.00 81 1019.1
20260506094041 45 349 7.0 10.0 0.00 0.00 0.00 81 1019.1
20260506093531 45 221 5.0 8.0 0.00 0.00 0.00 81 1019.0
20260506093125 45 243 3.0 9.0 0.00 0.00 0.00 80 1019.0
20260506092521 45 276 3.0 9.0 0.00 0.00 0.00 80 1018.8
20260506092030 45 253 5.0 9.0 0.00 0.00 0.00 79 1018.9
20260506091620 45 271 6.0 11.0 0.00 0.00 0.00 79 1018.8
20260506091041 45 271 7.0 11.0 0.00 0.00 0.00 79 1018.8
20260506090529 45 268 6.0 10.0 0.00 0.00 0.00 79 1018.8
20260506090148 45 258 5.0 9.0 0.00 0.00 0.00 79 1018.8
20260506085518 45 261 4.0 9.0 0.00 0.00 0.00 79 1018.7
20260506085030 45 288 5.0 9.0 0.00 0.00 0.00 78 1018.7
20260506084638 45 258 4.0 11.0 0.00 0.00 0.00 78 1018.7
20260506084034 45 257 6.0 11.0 0.00 0.00 0.00 78 1018.8
20260506083538 45 253 5.0 9.0 0.00 0.00 0.00 77 1018.7
20260506083109 45 243 5.0 12.0 0.00 0.00 0.00 76 1018.7
20260506082535 46 271 5.0 13.0 0.00 0.00 0.00 76 1018.6
20260506082047 46 309 7.0 13.0 0.00 0.00 0.00 76 1018.6
20260506081645 46 302 7.0 12.0 0.00 0.00 0.00 75 1018.6
20260506081039 46 317 4.0 11.0 0.00 0.00 0.00 75 1018.6
20260506080534 46 270 5.0 11.0 0.00 0.00 0.00 74 1018.6
20260506080208 46 303 4.0 14.0 0.00 0.00 0.00 74 1018.6
20260506073525 46 258 8.0 11.0 0.00 0.00 0.00 74 1018.3
20260506073152 46 309 5.0 13.0 0.00 0.00 0.00 74 1018.3
20260506072522 46 267 5.0 13.0 0.00 0.00 0.00 74 1018.2
20260506072056 46 257 7.0 16.0 0.00 0.00 0.00 73 1018.2
20260506071650 46 269 7.0 18.0 0.00 0.00 0.00 73 1018.2
20260506071109 46 248 9.0 18.0 0.00 0.00 0.00 73 1018.1
20260506070523 46 275 7.0 14.0 0.00 0.00 0.00 73 1018.0
20260506070206 46 279 7.0 14.0 0.00 0.00 0.00 73 1018.1
20260506062046 46 259 7.0 14.0 0.00 0.00 0.00 73 1017.9
20260506061615 46 255 7.0 15.0 0.00 0.00 0.00 73 1018.0
20260506061044 46 279 8.0 15.0 0.00 0.00 0.00 73 1017.9
20260506060537 46 265 9.0 15.0 0.00 0.00 0.00 73 1017.8
20260506060136 46 247 10.0 14.0 0.00 0.00 0.00 73 1017.8
20260506051111 47 281 10.0 19.0 0.00 0.00 0.00 71 1017.7
20260506050547 47 261 10.0 16.0 0.00 0.00 0.00 71 1017.7
20260506050209 48 285 8.0 18.0 0.00 0.00 0.00 70 1017.7
20260506045100 48 292 8.0 18.0 0.00 0.00 0.00 70 1017.6
20260506044652 48 272 8.0 18.0 0.00 0.00 0.00 70 1017.7
20260506044034 48 298 7.0 17.0 0.00 0.00 0.00 70 1017.6
20260506043521 48 248 9.0 18.0 0.00 0.00 0.00 70 1017.6
20260506043110 48 300 10.0 18.0 0.00 0.00 0.00 69 1017.3
20260506042611 48 288 8.0 17.0 0.00 0.00 0.00 69 1017.2
20260506042111 49 288 7.0 15.0 0.00 0.00 0.00 68 1017.0
20260506041647 49 267 8.0 16.0 0.00 0.00 0.00 68 1016.8
20260506041023 49 284 8.0 16.0 0.00 0.00 0.00 68 1016.8
20260506040529 49 317 8.0 14.0 0.00 0.00 0.00 67 1016.8
20260506040118 50 340 5.0 16.0 0.00 0.00 0.00 66 1016.7
20260506035530 50 290 8.0 17.0 0.00 0.00 0.00 65 1016.5
20260506035028 50 290 11.0 17.0 0.00 0.00 0.00 64 1016.5
20260506034614 51 272 7.0 16.0 0.00 0.00 0.00 64 1016.4
20260506034034 51 340 9.0 16.0 0.00 0.00 0.00 63 1016.0
20260506033548 51 335 7.0 19.0 0.00 0.00 0.00 64 1016.1
20260506033144 52 329 7.0 17.0 0.00 0.00 0.00 63 1016.0
20260506032526 52 308 8.0 19.0 0.00 0.00 0.00 62 1016.0
20260506032110 52 293 11.0 18.0 0.00 0.00 0.00 62 1016.0
20260506031625 53 312 10.0 17.0 0.00 0.00 0.00 61 1015.9
20260506031019 53 347 9.0 18.0 0.00 0.00 0.00 60 1015.8
20260506030522 53 334 8.0 17.0 0.00 0.00 0.00 59 1015.8
20260506030132 53 266 8.0 15.0 0.00 0.00 0.00 59 1015.8
20260506025616 54 285 9.0 17.0 0.00 0.00 0.00 59 1015.7
20260506025034 54 320 10.0 17.0 0.00 0.00 0.00 59 1015.6
20260506024616 54 327 9.0 17.0 0.00 0.00 0.00 57 1015.6
20260506024057 54 317 8.0 17.0 0.00 0.00 0.00 57 1015.6
20260506023615 55 297 9.0 19.0 0.00 0.00 0.00 56 1015.6
20260506023110 55 317 8.0 19.0 0.00 0.00 0.00 57 1015.4
20260506022533 55 340 8.0 18.0 0.00 0.00 0.00 57 1015.2
20260506022035 55 333 9.0 20.0 0.00 0.00 0.00 56 1015.2
20260506021628 55 319 10.0 20.0 0.00 0.00 0.00 56 1015.3
20260506021030 55 275 8.0 20.0 0.00 0.00 0.00 56 1015.3
20260506020519 55 300 11.0 20.0 0.00 0.00 0.00 55 1015.3
20260506020110 56 275 6.0 18.0 0.00 0.00 0.00 56 1015.3
20260506015545 56 298 8.0 18.0 0.00 0.00 0.00 54 1015.2
20260506015031 56 318 8.0 18.0 0.00 0.00 0.00 54 1015.3
20260506014611 56 223 9.0 18.0 0.00 0.00 0.00 54 1015.3
20260506014044 56 316 9.0 18.0 0.00 0.00 0.00 56 1015.3
20260506013546 56 317 8.0 18.0 0.00 0.00 0.00 55 1015.2
20260506013105 56 316 9.0 20.0 0.00 0.00 0.00 57 1015.2
20260506012535 56 342 10.0 20.0 0.00 0.00 0.00 58 1015.2
20260506012032 56 344 13.0 19.0 0.00 0.00 0.00 58 1015.2
20260506011615 56 324 11.0 19.0 0.00 0.00 0.00 57 1015.2
20260506011032 57 320 10.0 20.0 0.00 0.00 0.00 58 1015.2
20260506010519 57 318 9.0 20.0 0.00 0.00 0.00 58 1015.2
20260506010153 57 348 9.0 18.0 0.00 0.00 0.00 57 1015.3
20260506005522 57 323 11.0 20.0 0.00 0.00 0.00 57 1015.2
20260506005030 57 313 13.0 20.0 0.00 0.00 0.00 56 1015.2
20260506004555 57 321 10.0 20.0 0.00 0.00 0.00 57 1015.0
20260506004022 58 342 10.0 17.0 0.00 0.00 0.00 58 1015.2
20260506003522 58 313 7.0 17.0 0.00 0.00 0.00 59 1015.1
20260506003137 58 315 8.0 18.0 0.00 0.00 0.00 58 1015.2
20260506002546 58 321 11.0 18.0 0.00 0.00 0.00 56 1015.2
20260506002037 58 326 8.0 17.0 0.00 0.00 0.00 57 1015.2
20260506001631 58 283 8.0 17.0 0.00 0.00 0.00 57 1015.2
20260506001039 59 304 11.0 21.0 0.00 0.00 0.00 58 1015.3
20260506000542 59 327 10.0 19.0 0.00 0.00 0.00 58 1015.2
20260506000134 59 340 8.0 17.0 0.00 0.00 0.00 56 1015.2
20260505235530 59 332 9.0 18.0 0.00 0.00 0.00 57 1015.1
20260505235048 59 305 7.0 18.0 0.00 0.00 0.00 59 1015.1
20260505234611 58 330 10.0 18.0 0.00 0.00 0.00 59 1015.1
20260505234019 58 296 11.0 17.0 0.00 0.00 0.00 60 1015.0
20260505233529 59 286 11.0 17.0 0.00 0.00 0.00 59 1015.2
20260505233131 60 324 9.0 15.0 0.00 0.00 0.00 57 1015.2
20260505232542 60 327 8.0 14.0 0.00 0.00 0.00 57 1015.2
20260505232028 61 289 5.0 13.0 0.00 0.00 0.00 57 1015.1
20260505231616 61 288 6.0 13.0 0.00 0.00 0.00 55 1015.1
20260505231038 61 352 6.0 13.0 0.00 0.00 0.00 54 1015.1
20260505230518 61 314 5.0 16.0 0.00 0.00 0.00 56 1015.0